| time (UTC) | temp F | wind direction | speed MPH | gust MPH | rain 1hr in | rain 24hr in | rain mn in | humidity % | barometer mb |
| 20260906163603 | 65 | 119 | 2.0 | 8.0 | 0.00 | 0.02 | 0.02 | 72 | 1015.9 |
| 20260906163106 | 65 | 242 | 3.0 | 8.0 | 0.00 | 0.02 | 0.02 | 72 | 1015.8 |
| 20260906162601 | 65 | 80 | 2.0 | 7.0 | 0.00 | 0.02 | 0.02 | 73 | 1015.9 |
| 20260906162103 | 65 | 63 | 2.0 | 7.0 | 0.00 | 0.02 | 0.02 | 73 | 1015.9 |
| 20260906161604 | 65 | 355 | 1.0 | 7.0 | 0.00 | 0.02 | 0.02 | 75 | 1015.9 |
| 20260906161102 | 64 | 243 | 1.0 | 8.0 | 0.00 | 0.02 | 0.02 | 74 | 1016.0 |
| 20260906160601 | 64 | 53 | 1.0 | 8.0 | 0.00 | 0.02 | 0.02 | 76 | 1016.0 |
| 20260906160104 | 63 | 47 | 2.0 | 8.0 | 0.00 | 0.02 | 0.02 | 76 | 1016.1 |
| 20260906155602 | 63 | 107 | 2.0 | 6.0 | 0.00 | 0.02 | 0.02 | 75 | 1016.1 |
| 20260906155057 | 63 | 77 | 2.0 | 6.0 | 0.00 | 0.02 | 0.02 | 76 | 1016.0 |
| 20260906154612 | 63 | 0 | 1.0 | 8.0 | 0.00 | 0.02 | 0.02 | 75 | 1016.2 |
| 20260906154057 | 63 | 272 | 2.0 | 8.0 | 0.00 | 0.02 | 0.02 | 74 | 1016.1 |
| 20260906153559 | 64 | 64 | 2.0 | 8.0 | 0.00 | 0.02 | 0.02 | 74 | 1016.2 |
| 20260906153103 | 64 | 5 | 2.0 | 8.0 | 0.00 | 0.02 | 0.02 | 76 | 1016.2 |
| 20260906152559 | 64 | 112 | 0.0 | 6.0 | 0.00 | 0.02 | 0.02 | 79 | 1016.1 |
| 20260906152100 | 64 | 87 | 2.0 | 8.0 | 0.00 | 0.02 | 0.02 | 79 | 1016.1 |
| 20260906151603 | 64 | 80 | 2.0 | 8.0 | 0.00 | 0.02 | 0.02 | 79 | 1016.1 |
| 20260906151100 | 64 | 72 | 3.0 | 8.0 | 0.00 | 0.02 | 0.02 | 78 | 1016.1 |
| 20260906150559 | 64 | 86 | 1.0 | 7.0 | 0.00 | 0.02 | 0.02 | 76 | 1016.1 |
| 20260906150106 | 64 | 128 | 1.0 | 7.0 | 0.00 | 0.02 | 0.02 | 76 | 1016.1 |
| 20260906145557 | 64 | 49 | 1.0 | 4.0 | 0.00 | 0.02 | 0.02 | 77 | 1016.1 |
| 20260906145059 | 64 | 348 | 1.0 | 7.0 | 0.00 | 0.02 | 0.02 | 78 | 1016.0 |
| 20260906144602 | 63 | 24 | 0.0 | 7.0 | 0.00 | 0.02 | 0.02 | 81 | 1016.1 |
| 20260906144059 | 63 | 0 | 1.0 | 7.0 | 0.00 | 0.02 | 0.02 | 81 | 1016.2 |
| 20260906143559 | 63 | 0 | 0.0 | 8.0 | 0.00 | 0.02 | 0.02 | 83 | 1016.0 |
| 20260906143106 | 63 | 241 | 0.0 | 8.0 | 0.00 | 0.02 | 0.02 | 83 | 1016.0 |
| 20260906142559 | 63 | 0 | 1.0 | 8.0 | 0.00 | 0.02 | 0.02 | 83 | 1016.0 |
| 20260906142100 | 63 | 257 | 0.0 | 9.0 | 0.00 | 0.02 | 0.02 | 83 | 1015.9 |
| 20260906141600 | 63 | 252 | 2.0 | 9.0 | 0.00 | 0.02 | 0.02 | 83 | 1015.9 |
| 20260906141056 | 63 | 0 | 1.0 | 4.0 | 0.00 | 0.02 | 0.02 | 84 | 1015.9 |
| 20260906140600 | 63 | 232 | 0.0 | 4.0 | 0.00 | 0.02 | 0.02 | 86 | 1015.9 |
| 20260906140107 | 62 | 0 | 2.0 | 4.0 | 0.00 | 0.02 | 0.02 | 85 | 1016.0 |
| 20260906135559 | 62 | 0 | 1.0 | 8.0 | 0.00 | 0.02 | 0.02 | 85 | 1016.0 |
| 20260906135059 | 62 | 0 | 1.0 | 8.0 | 0.00 | 0.02 | 0.02 | 85 | 1016.0 |
| 20260906134607 | 62 | 295 | 2.0 | 8.0 | 0.00 | 0.02 | 0.02 | 85 | 1016.0 |
| 20260906134059 | 62 | 292 | 1.0 | 6.0 | 0.00 | 0.02 | 0.02 | 86 | 1015.9 |
| 20260906133557 | 62 | 0 | 1.0 | 6.0 | 0.00 | 0.02 | 0.02 | 86 | 1016.0 |
| 20260906133119 | 62 | 244 | 1.0 | 6.0 | 0.00 | 0.02 | 0.02 | 88 | 1016.0 |
| 20260906132600 | 61 | 282 | 1.0 | 6.0 | 0.00 | 0.02 | 0.02 | 87 | 1015.9 |
| 20260906132057 | 62 | 304 | 0.0 | 6.0 | 0.00 | 0.02 | 0.02 | 88 | 1016.0 |
| 20260906131603 | 61 | 0 | 1.0 | 6.0 | 0.00 | 0.02 | 0.02 | 90 | 1016.0 |
| 20260906131056 | 61 | 301 | 1.0 | 6.0 | 0.00 | 0.02 | 0.02 | 90 | 1015.9 |
| 20260906130556 | 61 | 283 | 1.0 | 4.0 | 0.00 | 0.02 | 0.02 | 90 | 1015.9 |
| 20260906130117 | 61 | 229 | 0.0 | 3.0 | 0.00 | 0.02 | 0.02 | 91 | 1015.9 |
| 20260906125559 | 60 | 285 | 0.0 | 7.0 | 0.00 | 0.02 | 0.02 | 91 | 1015.8 |
| 20260906125057 | 60 | 0 | 0.0 | 7.0 | 0.00 | 0.02 | 0.02 | 91 | 1015.9 |
| 20260906124601 | 60 | 268 | 1.0 | 6.0 | 0.00 | 0.02 | 0.02 | 91 | 1015.8 |
| 20260906124059 | 60 | 0 | 0.0 | 5.0 | 0.00 | 0.02 | 0.02 | 92 | 1015.8 |
| 20260906123559 | 60 | 0 | 1.0 | 5.0 | 0.00 | 0.02 | 0.02 | 92 | 1015.8 |
| 20260906123104 | 60 | 281 | 0.0 | 3.0 | 0.00 | 0.02 | 0.02 | 93 | 1015.8 |
| 20260906122603 | 60 | 0 | 0.0 | 3.0 | 0.00 | 0.02 | 0.02 | 93 | 1015.7 |
| 20260906122103 | 60 | 0 | 1.0 | 3.0 | 0.00 | 0.02 | 0.02 | 93 | 1015.7 |
| 20260906121604 | 59 | 303 | 0.0 | 2.0 | 0.00 | 0.02 | 0.02 | 93 | 1015.7 |
| 20260906121101 | 59 | 0 | 0.0 | 2.0 | 0.00 | 0.02 | 0.02 | 93 | 1015.6 |
| 20260906120601 | 59 | 269 | 0.0 | 2.0 | 0.00 | 0.02 | 0.02 | 93 | 1015.6 |
| 20260906115601 | 59 | 0 | 0.0 | 2.0 | 0.00 | 0.02 | 0.02 | 93 | 1015.6 |
| 20260906115100 | 59 | 0 | 0.0 | 1.0 | 0.00 | 0.02 | 0.02 | 93 | 1015.5 |
| 20260906114601 | 59 | 0 | 0.0 | 1.0 | 0.00 | 0.02 | 0.02 | 93 | 1015.5 |
| 20260906114102 | 58 | 0 | 0.0 | 1.0 | 0.01 | 0.02 | 0.02 | 92 | 1015.5 |
| 20260906113559 | 58 | 0 | 0.0 | 0.0 | 0.01 | 0.02 | 0.02 | 92 | 1015.5 |
| 20260906113104 | 58 | 0 | 0.0 | 0.0 | 0.01 | 0.02 | 0.02 | 92 | 1015.4 |
| 20260906112559 | 58 | 0 | 0.0 | 0.0 | 0.01 | 0.02 | 0.02 | 92 | 1015.3 |
| 20260906112101 | 58 | 0 | 0.0 | 1.0 | 0.02 | 0.02 | 0.02 | 92 | 1015.2 |
| 20260906111604 | 58 | 0 | 0.0 | 1.0 | 0.02 | 0.02 | 0.02 | 92 | 1015.1 |
| 20260906111059 | 58 | 0 | 0.0 | 1.0 | 0.02 | 0.02 | 0.02 | 91 | 1015.1 |
| 20260906110601 | 58 | 0 | 0.0 | 2.0 | 0.02 | 0.02 | 0.02 | 91 | 1015.0 |
| 20260906110103 | 58 | 0 | 0.0 | 2.0 | 0.02 | 0.02 | 0.02 | 91 | 1014.9 |
| 20260906105600 | 58 | 0 | 0.0 | 1.0 | 0.02 | 0.02 | 0.02 | 91 | 1014.8 |
| 20260906105059 | 58 | 0 | 0.0 | 1.0 | 0.02 | 0.02 | 0.02 | 91 | 1014.7 |
| 20260906104602 | 58 | 0 | 0.0 | 1.0 | 0.02 | 0.02 | 0.02 | 91 | 1014.8 |
| 20260906104059 | 58 | 0 | 0.0 | 1.0 | 0.01 | 0.01 | 0.01 | 90 | 1014.7 |
| 20260906103603 | 58 | 0 | 0.0 | 1.0 | 0.01 | 0.01 | 0.01 | 90 | 1014.8 |
| 20260906103105 | 58 | 0 | 0.0 | 1.0 | 0.01 | 0.01 | 0.01 | 90 | 1014.8 |
| 20260906102600 | 58 | 0 | 0.0 | 1.0 | 0.01 | 0.01 | 0.01 | 89 | 1014.9 |
| 20260906102059 | 59 | 0 | 0.0 | 1.0 | 0.00 | 0.00 | 0.00 | 89 | 1014.7 |
| 20260906101606 | 59 | 0 | 0.0 | 1.0 | 0.00 | 0.00 | 0.00 | 88 | 1014.7 |
| 20260906101059 | 59 | 0 | 0.0 | 2.0 | 0.00 | 0.00 | 0.00 | 87 | 1014.6 |
| 20260906100559 | 59 | 0 | 0.0 | 2.0 | 0.00 | 0.00 | 0.00 | 86 | 1014.5 |
| 20260906100103 | 59 | 0 | 0.0 | 5.0 | 0.00 | 0.00 | 0.00 | 86 | 1014.7 |
| 20260906095601 | 60 | 0 | 0.0 | 5.0 | 0.00 | 0.00 | 0.00 | 86 | 1014.7 |
| 20260906095104 | 60 | 22 | 0.0 | 4.0 | 0.00 | 0.00 | 0.00 | 86 | 1014.6 |
| 20260906094610 | 60 | 32 | 1.0 | 4.0 | 0.00 | 0.00 | 0.00 | 86 | 1014.6 |
| 20260906094100 | 60 | 0 | 0.0 | 4.0 | 0.00 | 0.00 | 0.00 | 86 | 1014.5 |
| 20260906093601 | 60 | 163 | 1.0 | 4.0 | 0.00 | 0.00 | 0.00 | 87 | 1014.3 |
| 20260906093118 | 60 | 0 | 0.0 | 6.0 | 0.00 | 0.00 | 0.00 | 87 | 1014.2 |
| 20260906092604 | 60 | 60 | 1.0 | 6.0 | 0.00 | 0.00 | 0.00 | 87 | 1014.0 |
| 20260906092100 | 60 | 13 | 1.0 | 4.0 | 0.00 | 0.00 | 0.00 | 88 | 1014.1 |
| 20260906091604 | 60 | 36 | 1.0 | 4.0 | 0.00 | 0.00 | 0.00 | 88 | 1014.0 |
| 20260906091101 | 60 | 0 | 0.0 | 4.0 | 0.00 | 0.00 | 0.00 | 89 | 1014.1 |
| 20260906090600 | 60 | 33 | 0.0 | 4.0 | 0.00 | 0.00 | 0.00 | 89 | 1013.9 |
| 20260906090140 | 60 | 0 | 0.0 | 4.0 | 0.00 | 0.00 | 0.00 | 90 | 1013.9 |
| 20260906085603 | 60 | 76 | 0.0 | 4.0 | 0.00 | 0.00 | 0.00 | 90 | 1013.8 |
| 20260906085101 | 60 | 36 | 0.0 | 3.0 | 0.00 | 0.00 | 0.00 | 91 | 1013.8 |
| 20260906084631 | 60 | 0 | 0.0 | 3.0 | 0.00 | 0.00 | 0.00 | 91 | 1013.9 |
| 20260906084100 | 60 | 50 | 0.0 | 3.0 | 0.00 | 0.00 | 0.00 | 91 | 1013.8 |
| 20260906083600 | 60 | 0 | 0.0 | 3.0 | 0.00 | 0.00 | 0.00 | 92 | 1013.7 |
| 20260906083106 | 60 | 0 | 0.0 | 3.0 | 0.00 | 0.00 | 0.00 | 92 | 1013.7 |
| 20260906082559 | 60 | 236 | 0.0 | 1.0 | 0.00 | 0.00 | 0.00 | 92 | 1013.6 |
| 20260906082059 | 60 | 0 | 0.0 | 1.0 | 0.00 | 0.00 | 0.00 | 92 | 1013.5 |
| 20260906081603 | 60 | 0 | 0.0 | 1.0 | 0.00 | 0.00 | 0.00 | 92 | 1013.5 |
| 20260906081100 | 60 | 0 | 0.0 | 1.0 | 0.00 | 0.00 | 0.00 | 92 | 1013.6 |
| 20260906080600 | 60 | 0 | 0.0 | 1.0 | 0.00 | 0.00 | 0.00 | 92 | 1013.6 |
| 20260906080109 | 60 | 0 | 0.0 | 1.0 | 0.00 | 0.00 | 0.00 | 92 | 1013.5 |
| 20260906075601 | 60 | 0 | 0.0 | 1.0 | 0.00 | 0.00 | 0.00 | 92 | 1013.4 |
| 20260906075101 | 60 | 0 | 0.0 | 1.0 | 0.00 | 0.00 | 0.00 | 91 | 1013.5 |
| 20260906074605 | 60 | 0 | 0.0 | 2.0 | 0.00 | 0.00 | 0.00 | 91 | 1013.4 |
| 20260906074100 | 60 | 0 | 0.0 | 2.0 | 0.00 | 0.00 | 0.00 | 91 | 1013.4 |
| 20260906073601 | 60 | 0 | 0.0 | 2.0 | 0.00 | 0.00 | 0.00 | 91 | 1013.4 |
| 20260906073104 | 60 | 0 | 0.0 | 2.0 | 0.00 | 0.00 | 0.00 | 91 | 1013.4 |
| 20260906072600 | 60 | 0 | 0.0 | 2.0 | 0.00 | 0.00 | 0.00 | 91 | 1013.4 |
| 20260906072100 | 60 | 0 | 0.0 | 2.0 | 0.00 | 0.00 | 0.00 | 91 | 1013.4 |
| 20260906071602 | 60 | 0 | 0.0 | 2.0 | 0.00 | 0.00 | 0.00 | 91 | 1013.4 |
| 20260906071059 | 60 | 268 | 0.0 | 3.0 | 0.00 | 0.00 | 0.00 | 91 | 1013.4 |
| 20260906070603 | 60 | 267 | 0.0 | 3.0 | 0.00 | 0.00 | 0.00 | 91 | 1013.6 |
| 20260906065600 | 60 | 0 | 0.0 | 3.0 | 0.00 | 0.00 | 0.00 | 91 | 1013.5 |
| 20260906065100 | 60 | 0 | 0.0 | 3.0 | 0.00 | 0.00 | 0.00 | 90 | 1013.3 |
| 20260906064602 | 59 | 0 | 0.0 | 0.0 | 0.00 | 0.00 | 0.00 | 90 | 1013.3 |
| 20260906064100 | 59 | 0 | 0.0 | 0.0 | 0.00 | 0.00 | 0.00 | 90 | 1013.3 |
| 20260906063559 | 59 | 0 | 0.0 | 0.0 | 0.00 | 0.00 | 0.00 | 90 | 1013.4 |
| 20260906063104 | 59 | 0 | 0.0 | 0.0 | 0.00 | 0.00 | 0.00 | 90 | 1013.4 |
| 20260906062600 | 59 | 0 | 0.0 | 0.0 | 0.00 | 0.00 | 0.00 | 90 | 1013.4 |
| 20260906062101 | 59 | 0 | 0.0 | 0.0 | 0.00 | 0.00 | 0.00 | 89 | 1013.5 |
| 20260906061607 | 59 | 0 | 0.0 | 0.0 | 0.00 | 0.00 | 0.00 | 89 | 1013.5 |
| 20260906061059 | 59 | 0 | 0.0 | 0.0 | 0.00 | 0.00 | 0.00 | 89 | 1013.5 |
| 20260906060603 | 59 | 0 | 0.0 | 0.0 | 0.00 | 0.00 | 0.00 | 88 | 1013.4 |
| 20260906060103 | 60 | 0 | 0.0 | 0.0 | 0.00 | 0.00 | 0.00 | 88 | 1013.4 |
| 20260906055559 | 60 | 0 | 0.0 | 0.0 | 0.00 | 0.00 | 0.00 | 87 | 1013.4 |
| 20260906055100 | 60 | 0 | 0.0 | 0.0 | 0.00 | 0.00 | 0.00 | 87 | 1013.5 |
| 20260906054607 | 60 | 0 | 0.0 | 0.0 | 0.00 | 0.00 | 0.00 | 87 | 1013.5 |
| 20260906054104 | 60 | 0 | 0.0 | 0.0 | 0.00 | 0.00 | 0.00 | 87 | 1013.6 |
| 20260906053600 | 60 | 0 | 0.0 | 0.0 | 0.00 | 0.00 | 0.00 | 87 | 1013.6 |
| 20260906053119 | 60 | 0 | 0.0 | 0.0 | 0.00 | 0.00 | 0.00 | 87 | 1013.7 |
| 20260906052600 | 60 | 0 | 0.0 | 0.0 | 0.00 | 0.00 | 0.00 | 87 | 1013.7 |
| 20260906052101 | 60 | 0 | 0.0 | 0.0 | 0.00 | 0.00 | 0.00 | 87 | 1013.8 |
| 20260906051603 | 60 | 0 | 0.0 | 0.0 | 0.00 | 0.00 | 0.00 | 87 | 1013.7 |
| 20260906051059 | 60 | 0 | 0.0 | 0.0 | 0.00 | 0.00 | 0.00 | 87 | 1013.7 |
| 20260906050559 | 60 | 0 | 0.0 | 0.0 | 0.00 | 0.00 | 0.00 | 87 | 1013.8 |
| 20260906045600 | 60 | 0 | 0.0 | 0.0 | 0.00 | 0.00 | 0.00 | 87 | 1013.8 |
| 20260906045100 | 60 | 0 | 0.0 | 0.0 | 0.00 | 0.00 | 0.00 | 87 | 1013.8 |
| 20260906044622 | 60 | 0 | 0.0 | 0.0 | 0.00 | 0.00 | 0.00 | 87 | 1013.7 |
| 20260906044059 | 60 | 0 | 0.0 | 1.0 | 0.00 | 0.00 | 0.00 | 88 | 1013.8 |
| 20260906043600 | 60 | 0 | 0.0 | 1.0 | 0.00 | 0.00 | 0.00 | 88 | 1013.7 |
| 20260906043104 | 60 | 0 | 0.0 | 0.0 | 0.00 | 0.00 | 0.00 | 88 | 1013.6 |
| 20260906042559 | 60 | 0 | 0.0 | 0.0 | 0.00 | 0.00 | 0.00 | 89 | 1013.6 |
| 20260906042100 | 60 | 0 | 0.0 | 0.0 | 0.00 | 0.00 | 0.00 | 89 | 1013.6 |
| 20260906041615 | 60 | 0 | 0.0 | 0.0 | 0.00 | 0.00 | 0.00 | 89 | 1013.6 |
| 20260906041059 | 60 | 0 | 0.0 | 0.0 | 0.00 | 0.00 | 0.00 | 89 | 1013.5 |
| 20260906040559 | 60 | 0 | 0.0 | 0.0 | 0.00 | 0.00 | 0.00 | 89 | 1013.6 |
| 20260906040105 | 60 | 0 | 0.0 | 0.0 | 0.00 | 0.00 | 0.00 | 89 | 1013.6 |
| 20260906035603 | 60 | 0 | 0.0 | 0.0 | 0.00 | 0.00 | 0.00 | 89 | 1013.5 |
| 20260906035100 | 60 | 0 | 0.0 | 0.0 | 0.00 | 0.00 | 0.00 | 89 | 1013.4 |
| 20260906034610 | 60 | 0 | 0.0 | 0.0 | 0.00 | 0.00 | 0.00 | 88 | 1013.5 |
| 20260906034103 | 60 | 0 | 0.0 | 0.0 | 0.00 | 0.00 | 0.00 | 88 | 1013.4 |
| 20260906033559 | 60 | 0 | 0.0 | 0.0 | 0.00 | 0.00 | 0.00 | 88 | 1013.4 |
| 20260906033104 | 60 | 0 | 0.0 | 0.0 | 0.00 | 0.00 | 0.00 | 88 | 1013.3 |
| 20260906032559 | 60 | 0 | 0.0 | 0.0 | 0.00 | 0.00 | 0.00 | 88 | 1013.2 |
| 20260906032118 | 60 | 0 | 0.0 | 0.0 | 0.00 | 0.00 | 0.00 | 88 | 1013.2 |
| 20260906031601 | 60 | 0 | 0.0 | 0.0 | 0.00 | 0.00 | 0.00 | 88 | 1013.2 |
| 20260906031058 | 60 | 0 | 0.0 | 0.0 | 0.00 | 0.00 | 0.00 | 88 | 1013.2 |
| 20260906030559 | 60 | 0 | 0.0 | 0.0 | 0.00 | 0.00 | 0.00 | 88 | 1013.3 |
| 20260906030101 | 60 | 0 | 0.0 | 0.0 | 0.00 | 0.00 | 0.00 | 88 | 1013.3 |
| 20260906025559 | 60 | 0 | 0.0 | 0.0 | 0.00 | 0.00 | 0.00 | 88 | 1013.2 |
| 20260906025101 | 60 | 0 | 0.0 | 0.0 | 0.00 | 0.00 | 0.00 | 88 | 1013.3 |
| 20260906024623 | 60 | 0 | 0.0 | 0.0 | 0.00 | 0.00 | 0.00 | 88 | 1013.4 |
| 20260906024100 | 60 | 0 | 0.0 | 0.0 | 0.00 | 0.00 | 0.00 | 88 | 1013.4 |
| 20260906023559 | 61 | 0 | 0.0 | 0.0 | 0.00 | 0.00 | 0.00 | 87 | 1013.3 |
| 20260906023106 | 61 | 0 | 0.0 | 0.0 | 0.00 | 0.00 | 0.00 | 87 | 1013.4 |
| 20260906022557 | 61 | 0 | 0.0 | 0.0 | 0.00 | 0.00 | 0.00 | 86 | 1013.3 |
| 20260906022059 | 61 | 0 | 0.0 | 0.0 | 0.00 | 0.00 | 0.00 | 86 | 1013.3 |
| 20260906021559 | 61 | 0 | 0.0 | 0.0 | 0.00 | 0.00 | 0.00 | 87 | 1013.3 |
| 20260906021059 | 61 | 0 | 0.0 | 0.0 | 0.00 | 0.00 | 0.00 | 87 | 1013.4 |
| 20260906020559 | 61 | 0 | 0.0 | 0.0 | 0.00 | 0.00 | 0.00 | 87 | 1013.4 |
| 20260906020108 | 61 | 0 | 0.0 | 0.0 | 0.00 | 0.00 | 0.00 | 87 | 1013.2 |
| 20260906015559 | 61 | 0 | 0.0 | 0.0 | 0.00 | 0.00 | 0.00 | 86 | 1013.4 |
| 20260906015059 | 61 | 0 | 0.0 | 0.0 | 0.00 | 0.00 | 0.00 | 86 | 1013.3 |
| 20260906014605 | 62 | 0 | 0.0 | 0.0 | 0.00 | 0.00 | 0.00 | 86 | 1013.3 |
| 20260906014059 | 62 | 0 | 0.0 | 0.0 | 0.00 | 0.00 | 0.00 | 85 | 1013.5 |
| 20260906013559 | 62 | 0 | 0.0 | 0.0 | 0.00 | 0.00 | 0.00 | 85 | 1013.4 |
| 20260906013109 | 62 | 0 | 0.0 | 0.0 | 0.00 | 0.00 | 0.00 | 85 | 1013.5 |
| 20260906012557 | 62 | 0 | 0.0 | 0.0 | 0.00 | 0.00 | 0.00 | 85 | 1013.5 |
| 20260906012055 | 62 | 0 | 0.0 | 0.0 | 0.00 | 0.00 | 0.00 | 85 | 1013.5 |
| 20260906011604 | 62 | 0 | 0.0 | 0.0 | 0.00 | 0.00 | 0.00 | 85 | 1013.3 |
| 20260906011059 | 62 | 0 | 0.0 | 0.0 | 0.00 | 0.00 | 0.00 | 84 | 1013.2 |
| 20260906010559 | 62 | 0 | 0.0 | 0.0 | 0.00 | 0.00 | 0.00 | 84 | 1013.1 |
| 20260906010130 | 62 | 0 | 0.0 | 0.0 | 0.00 | 0.00 | 0.00 | 84 | 1013.1 |
| 20260906005604 | 62 | 0 | 0.0 | 0.0 | 0.00 | 0.00 | 0.00 | 83 | 1013.1 |
| 20260906005059 | 62 | 0 | 0.0 | 0.0 | 0.00 | 0.00 | 0.00 | 84 | 1013.2 |
| 20260906004610 | 62 | 0 | 0.0 | 0.0 | 0.00 | 0.00 | 0.00 | 84 | 1013.1 |
| 20260906004059 | 62 | 0 | 0.0 | 0.0 | 0.00 | 0.00 | 0.00 | 84 | 1013.1 |
| 20260906003559 | 62 | 0 | 0.0 | 0.0 | 0.00 | 0.00 | 0.00 | 84 | 1013.0 |
| 20260906003107 | 63 | 0 | 0.0 | 0.0 | 0.00 | 0.00 | 0.00 | 83 | 1012.9 |
| 20260906002559 | 63 | 0 | 0.0 | 0.0 | 0.00 | 0.00 | 0.00 | 83 | 1012.8 |
| 20260906002102 | 63 | 0 | 0.0 | 0.0 | 0.00 | 0.00 | 0.00 | 83 | 1012.8 |
| 20260906001611 | 63 | 0 | 0.0 | 0.0 | 0.00 | 0.00 | 0.00 | 83 | 1012.7 |
| 20260906001100 | 63 | 0 | 0.0 | 3.0 | 0.00 | 0.00 | 0.00 | 83 | 1012.7 |
| 20260906000600 | 63 | 0 | 0.0 | 3.0 | 0.00 | 0.00 | 0.00 | 83 | 1012.6 |
| 20260906000107 | 63 | 104 | 1.0 | 3.0 | 0.00 | 0.00 | 0.00 | 82 | 1012.5 |
| 20260905235602 | 63 | 0 | 0.0 | 1.0 | 0.00 | 0.00 | 0.00 | 82 | 1012.5 |
| 20260905235100 | 63 | 0 | 0.0 | 1.0 | 0.00 | 0.00 | 0.00 | 82 | 1012.5 |
| 20260905234608 | 63 | 0 | 0.0 | 2.0 | 0.00 | 0.00 | 0.00 | 83 | 1012.5 |
| 20260905234059 | 63 | 0 | 0.0 | 2.0 | 0.00 | 0.00 | 0.00 | 82 | 1012.5 |
| 20260905233601 | 64 | 0 | 0.0 | 2.0 | 0.00 | 0.00 | 0.00 | 81 | 1012.5 |
| 20260905233101 | 64 | 0 | 0.0 | 6.0 | 0.00 | 0.00 | 0.00 | 81 | 1012.5 |
| 20260905232603 | 64 | 0 | 1.0 | 6.0 | 0.00 | 0.00 | 0.00 | 81 | 1012.6 |
| 20260905232100 | 64 | 74 | 0.0 | 4.0 | 0.00 | 0.00 | 0.00 | 80 | 1012.6 |
| 20260905231611 | 65 | 75 | 1.0 | 4.0 | 0.00 | 0.00 | 0.00 | 79 | 1012.7 |
| 20260905231059 | 65 | 64 | 0.0 | 4.0 | 0.00 | 0.00 | 0.00 | 78 | 1012.5 |
| 20260905230604 | 65 | 77 | 1.0 | 4.0 | 0.00 | 0.00 | 0.00 | 78 | 1012.5 |
| 20260905230122 | 65 | 76 | 1.0 | 4.0 | 0.00 | 0.00 | 0.00 | 77 | 1012.4 |
| 20260905225601 | 65 | 73 | 1.0 | 6.0 | 0.00 | 0.00 | 0.00 | 78 | 1012.5 |
| 20260905225100 | 65 | 74 | 2.0 | 6.0 | 0.00 | 0.00 | 0.00 | 78 | 1012.5 |
| 20260905224616 | 65 | 94 | 1.0 | 6.0 | 0.00 | 0.00 | 0.00 | 77 | 1012.6 |
| 20260905224101 | 65 | 90 | 1.0 | 4.0 | 0.00 | 0.00 | 0.00 | 78 | 1012.7 |
| 20260905223600 | 65 | 30 | 0.0 | 3.0 | 0.00 | 0.00 | 0.00 | 78 | 1012.5 |
| 20260905223105 | 65 | 86 | 0.0 | 3.0 | 0.00 | 0.00 | 0.00 | 78 | 1012.7 |
| 20260905222559 | 65 | 0 | 1.0 | 6.0 | 0.00 | 0.00 | 0.00 | 77 | 1012.6 |
| 20260905222101 | 65 | 104 | 2.0 | 6.0 | 0.00 | 0.00 | 0.00 | 77 | 1012.6 |
| 20260905221608 | 65 | 88 | 2.0 | 6.0 | 0.00 | 0.00 | 0.00 | 77 | 1012.5 |
| 20260905221100 | 66 | 82 | 2.0 | 7.0 | 0.00 | 0.00 | 0.00 | 76 | 1012.5 |
| 20260905220559 | 66 | 0 | 2.0 | 7.0 | 0.00 | 0.00 | 0.00 | 76 | 1012.5 |
| 20260905220105 | 67 | 62 | 3.0 | 6.0 | 0.00 | 0.00 | 0.00 | 76 | 1012.4 |
| 20260905215604 | 66 | 76 | 1.0 | 5.0 | 0.00 | 0.00 | 0.00 | 76 | 1012.3 |
| 20260905215101 | 66 | 112 | 1.0 | 9.0 | 0.00 | 0.00 | 0.00 | 77 | 1012.2 |
| 20260905214602 | 66 | 92 | 2.0 | 9.0 | 0.00 | 0.00 | 0.00 | 77 | 1012.0 |
| 20260905214100 | 66 | 67 | 4.0 | 9.0 | 0.00 | 0.00 | 0.00 | 76 | 1012.0 |
| 20260905213601 | 67 | 69 | 1.0 | 8.0 | 0.00 | 0.00 | 0.00 | 76 | 1011.9 |
| 20260905213107 | 67 | 72 | 2.0 | 8.0 | 0.00 | 0.00 | 0.00 | 76 | 1011.9 |
| 20260905212600 | 67 | 67 | 2.0 | 8.0 | 0.00 | 0.00 | 0.00 | 76 | 1011.8 |
| 20260905212104 | 67 | 88 | 1.0 | 8.0 | 0.00 | 0.00 | 0.00 | 76 | 1011.8 |
| 20260905211603 | 67 | 87 | 1.0 | 9.0 | 0.00 | 0.00 | 0.00 | 76 | 1011.8 |
| 20260905211104 | 67 | 88 | 1.0 | 9.0 | 0.00 | 0.00 | 0.00 | 76 | 1011.7 |
| 20260905210605 | 67 | 97 | 2.0 | 7.0 | 0.00 | 0.00 | 0.00 | 75 | 1011.7 |
| 20260905210104 | 67 | 73 | 2.0 | 7.0 | 0.00 | 0.00 | 0.00 | 74 | 1011.7 |
| 20260905205600 | 68 | 114 | 2.0 | 10.0 | 0.00 | 0.00 | 0.00 | 74 | 1011.6 |
| 20260905205104 | 68 | 114 | 2.0 | 10.0 | 0.00 | 0.00 | 0.00 | 74 | 1011.6 |
| 20260905204612 | 68 | 88 | 4.0 | 10.0 | 0.00 | 0.00 | 0.00 | 73 | 1011.5 |
| 20260905204100 | 68 | 70 | 0.0 | 10.0 | 0.00 | 0.00 | 0.00 | 74 | 1011.5 |
| 20260905203600 | 68 | 0 | 2.0 | 10.0 | 0.00 | 0.00 | 0.00 | 74 | 1011.4 |
| 20260905203107 | 68 | 88 | 4.0 | 10.0 | 0.00 | 0.00 | 0.00 | 73 | 1011.3 |
| 20260905202600 | 69 | 74 | 3.0 | 7.0 | 0.00 | 0.00 | 0.00 | 74 | 1011.3 |
| 20260905202103 | 69 | 95 | 4.0 | 7.0 | 0.00 | 0.00 | 0.00 | 73 | 1011.3 |
| 20260905201609 | 69 | 109 | 2.0 | 8.0 | 0.00 | 0.00 | 0.00 | 74 | 1011.2 |
| 20260905201100 | 69 | 24 | 1.0 | 8.0 | 0.00 | 0.00 | 0.00 | 74 | 1011.2 |
| 20260905200600 | 69 | 94 | 3.0 | 10.0 | 0.00 | 0.00 | 0.00 | 73 | 1011.1 |
| 20260905195601 | 70 | 78 | 3.0 | 12.0 | 0.00 | 0.00 | 0.00 | 72 | 1011.0 |
| 20260905195059 | 69 | 17 | 5.0 | 12.0 | 0.00 | 0.00 | 0.00 | 72 | 1011.0 |
| 20260905194605 | 70 | 79 | 3.0 | 11.0 | 0.00 | 0.00 | 0.00 | 73 | 1011.0 |
| 20260905194100 | 70 | 92 | 4.0 | 10.0 | 0.00 | 0.00 | 0.00 | 74 | 1010.9 |
| 20260905193600 | 70 | 121 | 4.0 | 10.0 | 0.00 | 0.00 | 0.00 | 72 | 1010.9 |
| 20260905193104 | 70 | 88 | 1.0 | 10.0 | 0.00 | 0.00 | 0.00 | 72 | 1010.8 |
| 20260905192601 | 70 | 315 | 3.0 | 9.0 | 0.00 | 0.00 | 0.00 | 72 | 1010.9 |
| 20260905192101 | 70 | 100 | 4.0 | 9.0 | 0.00 | 0.00 | 0.00 | 73 | 1010.9 |
| 20260905191602 | 70 | 24 | 3.0 | 9.0 | 0.00 | 0.00 | 0.00 | 72 | 1010.9 |
| 20260905191101 | 70 | 351 | 4.0 | 9.0 | 0.00 | 0.00 | 0.00 | 72 | 1010.9 |
| 20260905190600 | 71 | 11 | 4.0 | 9.0 | 0.00 | 0.00 | 0.00 | 72 | 1010.9 |
| 20260905190103 | 70 | 70 | 2.0 | 9.0 | 0.00 | 0.00 | 0.00 | 73 | 1011.0 |
| 20260905185600 | 70 | 355 | 2.0 | 9.0 | 0.00 | 0.00 | 0.00 | 72 | 1011.0 |
| 20260905185105 | 70 | 63 | 2.0 | 11.0 | 0.00 | 0.00 | 0.00 | 72 | 1010.9 |
| 20260905184612 | 70 | 82 | 4.0 | 11.0 | 0.00 | 0.00 | 0.00 | 72 | 1010.9 |
| 20260905184100 | 70 | 19 | 5.0 | 11.0 | 0.00 | 0.00 | 0.00 | 72 | 1010.9 |
| 20260905183601 | 70 | 121 | 3.0 | 11.0 | 0.00 | 0.00 | 0.00 | 73 | 1010.9 |
| 20260905183115 | 70 | 0 | 4.0 | 11.0 | 0.00 | 0.00 | 0.00 | 71 | 1010.9 |
| 20260905182601 | 71 | 75 | 3.0 | 11.0 | 0.00 | 0.00 | 0.00 | 71 | 1010.9 |
| 20260905182102 | 71 | 98 | 5.0 | 11.0 | 0.00 | 0.00 | 0.00 | 71 | 1010.9 |
| 20260905181603 | 70 | 86 | 2.0 | 9.0 | 0.00 | 0.00 | 0.00 | 72 | 1011.0 |
| 20260905181100 | 70 | 51 | 3.0 | 10.0 | 0.00 | 0.00 | 0.00 | 72 | 1010.9 |
| 20260905180601 | 70 | 223 | 1.0 | 10.0 | 0.00 | 0.00 | 0.00 | 70 | 1011.0 |
| 20260905180105 | 70 | 251 | 1.0 | 8.0 | 0.00 | 0.00 | 0.00 | 71 | 1010.9 |
| 20260905175600 | 70 | 121 | 3.0 | 8.0 | 0.00 | 0.00 | 0.00 | 71 | 1010.8 |
| 20260905175100 | 70 | 42 | 2.0 | 7.0 | 0.00 | 0.00 | 0.00 | 71 | 1010.8 |
| 20260905174608 | 70 | 160 | 1.0 | 9.0 | 0.00 | 0.00 | 0.00 | 73 | 1010.7 |
| 20260905174101 | 70 | 92 | 2.0 | 9.0 | 0.00 | 0.00 | 0.00 | 73 | 1010.7 |
| 20260905173601 | 70 | 35 | 4.0 | 9.0 | 0.00 | 0.00 | 0.00 | 72 | 1010.7 |
| 20260905173108 | 70 | 29 | 3.0 | 8.0 | 0.00 | 0.00 | 0.00 | 72 | 1010.6 |
| 20260905172601 | 70 | 51 | 2.0 | 10.0 | 0.00 | 0.00 | 0.00 | 73 | 1010.6 |
| 20260905172101 | 70 | 94 | 3.0 | 10.0 | 0.00 | 0.00 | 0.00 | 73 | 1010.7 |
| 20260905171607 | 70 | 103 | 1.0 | 8.0 | 0.00 | 0.00 | 0.00 | 73 | 1010.7 |
| 20260905171100 | 70 | 94 | 2.0 | 6.0 | 0.00 | 0.00 | 0.00 | 72 | 1010.7 |
| 20260905170600 | 70 | 0 | 2.0 | 8.0 | 0.00 | 0.00 | 0.00 | 73 | 1010.6 |
| 20260905170112 | 70 | 117 | 3.0 | 8.0 | 0.00 | 0.00 | 0.00 | 73 | 1010.7 |
| 20260905165604 | 70 | 22 | 3.0 | 8.0 | 0.00 | 0.00 | 0.00 | 72 | 1010.7 |
| 20260905165104 | 70 | 105 | 2.0 | 10.0 | 0.00 | 0.00 | 0.00 | 73 | 1010.7 |
| 20260905164608 | 70 | 0 | 3.0 | 10.0 | 0.00 | 0.00 | 0.00 | 73 | 1010.7 |
| 20260905164102 | 70 | 136 | 3.0 | 8.0 | 0.00 | 0.00 | 0.00 | 73 | 1010.8 |